FW5940 Weather Reports


Display with metric or nautical units.
time (UTC)temp
F
wind
direction
speed
MPH
gust
MPH
rain 1hr
in
rain 24hr
in
rain mn
in
humidity
%
barometer
mb
20260901143017 73 325 4.0 8.0 0.00 0.00 0.00 54 1021.0
20260901142020 74 283 4.0 7.0 0.00 0.00 0.00 55 1021.1
20260901141018 74 333 5.0 10.0 0.00 0.00 0.00 53 1021.2
20260901140015 75 285 5.0 13.0 0.00 0.00 0.00 50 1021.1
20260901135017 75 324 3.0 8.0 0.00 0.00 0.00 50 1021.1
20260901134016 76 242 5.0 10.0 0.00 0.00 0.00 49 1021.1
20260901133019 76 268 4.0 11.0 0.00 0.00 0.00 49 1021.3
20260901132107 76 278 5.0 13.0 0.00 0.00 0.00 50 1021.4
20260901131019 76 249 4.0 9.0 0.00 0.00 0.00 49 1021.5
20260901130017 74 214 3.0 6.0 0.00 0.00 0.00 51 1021.5
20260901125017 76 241 4.0 8.0 0.00 0.00 0.00 49 1021.7
20260901124017 75 258 4.0 9.0 0.00 0.00 0.00 50 1021.8
20260901123016 75 252 4.0 9.0 0.00 0.00 0.00 51 1021.9
20260901122016 76 227 3.0 8.0 0.00 0.00 0.00 50 1021.8
20260901121036 76 228 5.0 9.0 0.00 0.00 0.00 49 1021.9
20260901120017 74 223 4.0 10.0 0.00 0.00 0.00 52 1021.9
20260901115018 75 246 3.0 10.0 0.00 0.00 0.00 50 1022.0
20260901114016 75 236 4.0 8.0 0.00 0.00 0.00 50 1022.1
20260901113016 76 263 4.0 8.0 0.00 0.00 0.00 51 1022.2
20260901112056 73 255 4.0 10.0 0.00 0.00 0.00 54 1022.3
20260901111016 75 269 6.0 14.0 0.00 0.00 0.00 52 1022.3
20260901110016 75 225 5.0 11.0 0.00 0.00 0.00 54 1022.3
20260901105018 73 194 4.0 10.0 0.00 0.00 0.00 56 1022.3
20260901104017 72 265 4.0 9.0 0.00 0.00 0.00 55 1022.4
20260901103015 71 293 4.0 9.0 0.00 0.00 0.00 56 1022.5
20260901102015 72 286 2.0 8.0 0.00 0.00 0.00 55 1022.5
20260901101016 72 282 4.0 8.0 0.00 0.00 0.00 55 1022.6
20260901100016 72 290 6.0 12.0 0.00 0.00 0.00 56 1022.5
20260901095016 72 335 6.0 11.0 0.00 0.00 0.00 56 1022.5
20260901094039 73 263 4.0 10.0 0.00 0.00 0.00 56 1022.5
20260901093016 73 237 4.0 14.0 0.00 0.00 0.00 57 1022.6
20260901092016 72 226 5.0 11.0 0.00 0.00 0.00 58 1022.6
20260901091017 71 220 5.0 9.0 0.00 0.00 0.00 59 1022.6
20260901090015 71 221 3.0 9.0 0.00 0.00 0.00 59 1022.6
20260901085017 70 198 3.0 8.0 0.00 0.00 0.00 60 1022.7
20260901084016 70 220 5.0 9.0 0.00 0.00 0.00 61 1022.7
20260901083019 69 202 4.0 10.0 0.00 0.00 0.00 62 1022.6
20260901082016 69 223 3.0 7.0 0.00 0.00 0.00 63 1022.6
20260901081035 68 268 3.0 6.0 0.00 0.00 0.00 65 1022.6
20260901080039 67 275 4.0 9.0 0.00 0.00 0.00 65 1022.6
20260901075018 66 242 3.0 5.0 0.00 0.00 0.00 68 1022.6
20260901074020 66 229 2.0 5.0 0.00 0.00 0.00 70 1022.6
20260901073017 65 218 4.0 8.0 0.00 0.00 0.00 71 1022.6
20260901072019 65 234 3.0 7.0 0.00 0.00 0.00 73 1022.5
20260901071017 64 240 2.0 7.0 0.00 0.00 0.00 73 1022.5
20260901070017 63 218 2.0 7.0 0.00 0.00 0.00 74 1022.6
20260901065021 63 219 3.0 7.0 0.00 0.00 0.00 75 1022.6
20260901064025 62 222 3.0 9.0 0.00 0.00 0.00 76 1022.5
20260901063040 61 205 2.0 6.0 0.00 0.00 0.00 77 1022.4
20260901062018 60 214 2.0 7.0 0.00 0.00 0.00 79 1022.5
20260901061017 59 214 1.0 3.0 0.00 0.00 0.00 79 1022.4
20260901060016 58 217 2.0 4.0 0.00 0.00 0.00 80 1022.5
20260901055039 57 207 2.0 5.0 0.00 0.00 0.00 81 1022.6
20260901054017 57 187 1.0 3.0 0.00 0.00 0.00 81 1022.4
20260901053019 56 185 2.0 4.0 0.00 0.00 0.00 82 1022.4
20260901052039 56 185 2.0 4.0 0.00 0.00 0.00 82 1022.3
20260901051016 55 166 1.0 4.0 0.00 0.00 0.00 83 1022.3
20260901050038 55 155 0.0 1.0 0.00 0.00 0.00 83 1022.3
20260901045017 56 134 0.0 3.0 0.00 0.00 0.00 82 1022.2
20260901044016 56 177 2.0 6.0 0.00 0.00 0.00 82 1022.1
20260901043017 56 183 1.0 3.0 0.00 0.00 0.00 82 1022.1
20260901042016 56 197 2.0 4.0 0.00 0.00 0.00 82 1022.2
20260901041018 56 200 1.0 2.0 0.00 0.00 0.00 81 1022.0
20260901040036 57 200 1.0 2.0 0.00 0.00 0.00 81 1021.9
20260901035040 57 199 1.0 4.0 0.00 0.00 0.00 81 1022.0
20260901034016 57 198 2.0 4.0 0.00 0.00 0.00 80 1022.0
20260901033015 58 199 3.0 5.0 0.00 0.00 0.00 80 1022.1
20260901032017 58 208 2.0 4.0 0.00 0.01 0.00 80 1022.0
20260901031036 59 203 1.0 5.0 0.00 0.01 0.00 79 1022.1
20260901030018 59 208 3.0 8.0 0.00 0.01 0.00 80 1022.1
20260901025019 59 186 2.0 4.0 0.00 0.01 0.00 80 1022.2
20260901024019 59 184 1.0 3.0 0.00 0.01 0.00 80 1022.2
20260901023017 59 176 1.0 3.0 0.00 0.01 0.00 80 1022.2
20260901022038 59 173 0.0 2.0 0.00 0.01 0.00 79 1022.1
20260901021038 60 172 1.0 4.0 0.00 0.01 0.00 79 1022.1
20260901020015 60 165 2.0 5.0 0.00 0.01 0.00 79 1022.0
20260901015017 61 146 1.0 2.0 0.00 0.01 0.00 79 1022.0
20260901014020 61 140 1.0 3.0 0.00 0.01 0.00 77 1022.0
20260901013016 61 178 1.0 3.0 0.00 0.01 0.00 76 1022.0
20260901012018 61 179 1.0 3.0 0.00 0.01 0.00 76 1022.0
20260901011018 60 179 1.0 2.0 0.00 0.01 0.00 76 1022.0
20260901010140 60 181 2.0 4.0 0.00 0.01 0.00 77 1022.1
20260901005015 60 188 2.0 4.0 0.00 0.01 0.00 78 1022.1
20260901004017 60 216 0.0 2.0 0.00 0.01 0.00 79 1022.1
20260901003016 60 225 3.0 8.0 0.00 0.01 0.00 79 1022.2
20260901002037 60 220 1.0 4.0 0.00 0.01 0.00 80 1022.2
20260901001017 60 198 2.0 7.0 0.00 0.01 0.00 77 1022.2
20260901000036 59 193 2.0 5.0 0.00 0.01 0.00 78 1022.2
20260831235019 58 185 2.0 6.0 0.00 0.01 0.00 79 1022.1
20260831234038 58 191 1.0 4.0 0.00 0.01 0.00 79 1022.0
20260831233038 58 195 2.0 5.0 0.00 0.01 0.00 80 1022.0
20260831232016 59 186 0.0 1.0 0.00 0.01 0.00 78 1022.0
20260831231041 59 192 2.0 5.0 0.00 0.01 0.00 78 1022.1
20260831230018 59 203 2.0 5.0 0.00 0.01 0.00 77 1022.1
20260831225019 60 208 3.0 7.0 0.00 0.01 0.00 77 1022.0
20260831224016 60 201 3.0 6.0 0.00 0.01 0.00 78 1022.1
20260831223016 60 222 2.0 4.0 0.00 0.01 0.00 79 1022.0
20260831222017 59 219 2.0 5.0 0.00 0.01 0.00 80 1021.9
20260831221017 59 224 2.0 4.0 0.00 0.01 0.00 81 1021.8
20260831220019 60 209 0.0 2.0 0.00 0.01 0.00 80 1021.7
20260831215017 61 197 1.0 4.0 0.00 0.01 0.01 79 1021.6
20260831214017 61 200 2.0 5.0 0.00 0.01 0.01 79 1021.4
20260831213017 61 213 1.0 3.0 0.00 0.01 0.01 78 1021.2
20260831212017 62 213 1.0 2.0 0.00 0.01 0.01 77 1021.2
20260831211017 62 213 2.0 3.0 0.00 0.01 0.01 77 1021.0
20260831210015 62 222 2.0 3.0 0.00 0.01 0.01 77 1020.9
20260831205020 62 225 2.0 3.0 0.00 0.01 0.01 77 1020.8
20260831204015 62 200 2.0 4.0 0.00 0.01 0.01 77 1020.7
20260831203017 62 199 1.0 4.0 0.00 0.01 0.01 76 1020.5
20260831202057 63 202 0.0 2.0 0.00 0.01 0.01 75 1020.3
20260831201018 63 204 2.0 4.0 0.00 0.01 0.01 74 1020.1
20260831200017 64 210 2.0 5.0 0.00 0.01 0.01 73 1020.0
20260831195016 65 186 4.0 8.0 0.00 0.01 0.01 71 1019.9
20260831194017 65 185 3.0 6.0 0.00 0.01 0.01 70 1019.9
20260831193039 65 184 3.0 7.0 0.00 0.01 0.01 69 1019.8
20260831192038 65 182 2.0 5.0 0.00 0.01 0.01 67 1019.7
20260831191017 66 176 3.0 6.0 0.00 0.01 0.01 67 1019.5
20260831190015 66 182 3.0 6.0 0.00 0.01 0.01 65 1019.5
20260831185017 67 185 4.0 7.0 0.00 0.01 0.01 64 1019.4
20260831184017 67 186 3.0 6.0 0.00 0.01 0.01 63 1019.2
20260831183019 68 184 3.0 6.0 0.00 0.01 0.01 64 1018.9
20260831182016 68 198 4.0 7.0 0.00 0.01 0.01 63 1018.6
20260831181029 69 201 4.0 7.0 0.00 0.01 0.01 62 1018.4
20260831180017 69 204 4.0 10.0 0.00 0.01 0.01 60 1018.4
20260831175036 70 201 4.0 8.0 0.00 0.01 0.01 59 1018.2
20260831174027 71 209 5.0 10.0 0.00 0.01 0.01 57 1018.1
20260831173016 72 211 6.0 13.0 0.00 0.01 0.01 56 1017.8
20260831172017 72 210 6.0 11.0 0.00 0.01 0.01 55 1017.8
20260831171037 72 209 7.0 16.0 0.00 0.01 0.01 55 1017.7
20260831170018 72 208 5.0 10.0 0.00 0.01 0.01 56 1017.6
20260831165059 72 214 7.0 13.0 0.00 0.01 0.01 55 1017.6
20260831164016 73 219 7.0 13.0 0.00 0.01 0.01 55 1017.6
20260831163017 73 219 5.0 11.0 0.00 0.01 0.01 54 1017.6
20260831162015 73 217 6.0 11.0 0.00 0.01 0.01 53 1017.4
20260831161017 73 222 6.0 12.0 0.00 0.01 0.01 52 1017.3
20260831160017 74 231 5.0 12.0 0.00 0.01 0.01 50 1017.3
20260831155016 74 215 5.0 9.0 0.00 0.01 0.01 51 1017.3
20260831154016 75 249 4.0 12.0 0.00 0.01 0.01 49 1017.3
20260831153015 76 226 7.0 14.0 0.00 0.01 0.01 48 1017.3
20260831152020 76 226 6.0 14.0 0.00 0.01 0.01 48 1017.3
20260831151039 76 257 7.0 14.0 0.00 0.01 0.01 47 1017.4
20260831150033 76 238 6.0 13.0 0.00 0.01 0.01 46 1017.6
20260831145016 77 230 10.0 18.0 0.00 0.01 0.01 45 1017.7
20260831144017 77 228 7.0 15.0 0.00 0.01 0.01 45 1017.5